Tracking 25995 objects as of 20-Aug-2022
HD Live streaming from Space Station
objects crossing your sky now

SATCOM 1

Track SATCOM 1 now!
SATCOM 1 is classified as:


NORAD ID: 8476
Int'l Code: 1975-117A
Perigee: 35,911.5 km
Apogee: 36,054.6 km
Inclination: 10.9 °
Period: 1,445.8 minutes
Semi major axis: 42354 km
RCS: 2.5118 m2 (large)
Launch date: December 13, 1975
Source: United States (US)
Launch site: AIR FORCE EASTERN TEST RANGE (AFETR)
aabbcc
Your satellite tracking list
Your tracking list is empty




NASA's NSSDC Master Catalog

Two Line Element Set (TLE):
1 08476U 75117A   22231.20033352 -.00000183  00000-0  00000-0 0  9997
2 08476  10.9466 316.0680 0016897 223.8070 146.3476  0.99600285 32443
Source of the keplerian elements: AFSPC